Weather History for Chadron, NE

Change the Weather History Date:

Wednesday, May 15, 2013

  Actual Average Record
Temperature  
Mean Temperature 67 °F 56 °F  
Max Temperature 82 °F 70 °F 94 °F (1936)
Min Temperature 52 °F 41 °F 28 °F (2014)
Degree Days  
Heating Degree Days 0 10  
Month to date heating degree days 183 185  
Since 1 July heating degree days 6734 6948  
Cooling Degree Days 2 0  
Month to date cooling degree days 16 0  
Year to date cooling degree days 16 2  
Growing Degree Days 16 (Base 50)    
Moisture  
Dew Point 40 °F    
Average Humidity 45    
Maximum Humidity 67    
Minimum Humidity 23    
Precipitation  
Precipitation T in 0.08 in 0.56 in (1925)
Month to date precipitation 0.01 1.25  
Year to date precipitation 4.82 5.43  
Sea Level Pressure  
Sea Level Pressure 29.86 in    
Wind  
Wind Speed 11 mph (ESE)    
Max Wind Speed 25 mph    
Max Gust Speed 33 mph    
Visibility 10 miles    
Events Thunderstorm    
T = Trace of Precipitation, MM = Missing Value Source: NWS Daily Summary

Daily Weather History Graph

Daily Weather History Graph

Search for Another Location

Airport:

Trip Planner

Search our weather history database for the weather conditions in past years. The results will help you decide how hot, cold, wet, or windy it might be!

Date:

Astronomy

May. 15, 2013 Rise Set
Actual Time 5:29 AM MDT 8:08 PM MDT
Civil Twilight 4:56 AM MDT 8:41 PM MDT
Nautical Twilight 4:16 AM MDT 9:22 PM MDT
Astronomical Twilight 3:29 AM MDT 10:09 PM MDT
Moon 10:08 AM MDT (5/15) No Moon Set
Length of Visible Light 15h 44m
Length of Day
14h 39m
Waxing Crescent, 27% of the Moon is Illuminated
May 15
Waxing Crescent
May 17
First Quarter
May 24
Full
May 31
Last Quarter
Jun 8
New

Hourly Weather History & Observations

Time (MDT) Temp. Dew Point Humidity Pressure Visibility Wind Dir Wind Speed Gust Speed Precip Events Conditions
12:53 AM 57.9 °F 42.1 °F 56% 29.84 in 10.0 mi Calm Calm - N/A   Clear
1:53 AM 54.0 °F 41.0 °F 62% 29.83 in 10.0 mi NNE 6.9 mph - N/A   Clear
2:53 AM 54.0 °F 41.0 °F 62% 29.83 in 10.0 mi NE 8.1 mph - N/A   Clear
3:53 AM 54.0 °F 39.0 °F 57% 29.86 in 10.0 mi NE 12.7 mph - N/A   Clear
4:53 AM 55.9 °F 37.9 °F 51% 29.87 in 10.0 mi ENE 13.8 mph - N/A   Clear
5:53 AM 52.0 °F 39.0 °F 61% 29.91 in 10.0 mi ESE 4.6 mph - N/A   Partly Cloudy
6:53 AM 59.0 °F 39.9 °F 49% 29.91 in 9.0 mi ESE 10.4 mph - N/A   Clear
7:53 AM 63.0 °F 41.0 °F 45% 29.92 in 9.0 mi ESE 15.0 mph - N/A   Clear
8:53 AM 66.0 °F 41.0 °F 40% 29.94 in 10.0 mi East 16.1 mph - N/A   Clear
9:53 AM 71.1 °F 39.9 °F 32% 29.94 in 10.0 mi ESE 12.7 mph - N/A   Clear
10:53 AM 73.0 °F 39.0 °F 29% 29.92 in 10.0 mi ESE 13.8 mph 23.0 mph N/A   Clear
11:53 AM 75.0 °F 39.0 °F 27% 29.92 in - ESE 16.1 mph 20.7 mph N/A   Clear
12:53 PM 75.9 °F 39.0 °F 26% 29.90 in 10.0 mi SSE 11.5 mph 19.6 mph N/A   Clear
1:53 PM 78.1 °F 39.9 °F 25% 29.86 in 10.0 mi SSE 12.7 mph 21.9 mph N/A   Clear
2:53 PM 78.1 °F 39.9 °F 25% 29.84 in 10.0 mi Variable 6.9 mph 20.7 mph N/A   Clear
3:53 PM 80.1 °F 39.9 °F 24% 29.81 in 10.0 mi East 10.4 mph 20.7 mph N/A   Clear
4:53 PM 80.1 °F 39.0 °F 23% 29.79 in 10.0 mi SE 13.8 mph 21.9 mph N/A   Clear
5:53 PM 78.1 °F 39.9 °F 25% 29.79 in 10.0 mi SE 10.4 mph - N/A   Clear
6:53 PM 75.0 °F 39.9 °F 28% 29.79 in 10.0 mi ESE 9.2 mph - N/A   Clear
7:53 PM 72.0 °F 39.0 °F 30% 29.80 in 10.0 mi ESE 10.4 mph - N/A   Clear
8:53 PM 68.0 °F 39.0 °F 35% 29.81 in 10.0 mi East 5.8 mph - N/A   Clear
9:53 PM 70.0 °F 37.0 °F 30% 29.81 in 10.0 mi SSE 8.1 mph - N/A   Clear
10:53 PM 68.0 °F 36.0 °F 31% 29.81 in 10.0 mi SSE 13.8 mph - N/A   Clear
11:26 PM 68.0 °F 37.4 °F 33% 29.91 in 10.0 mi WSW 17.3 mph 29.9 mph N/A Thunderstorm Scattered Clouds
11:53 PM 62.1 °F 51.1 °F 67% 29.86 in 10.0 mi WSW 9.2 mph - 0.00 in   Overcast